Regional Weather Roundup
Issued by NWS Green Bay, WI

Home | Current Version | Previous Version | Text Only | Print | Product List | Glossary On
Versions: 1 2 3 4 5 6 7 8 9 10 11 12 13 14 15 16 17 18 19 20 21 22 23 24 25 26 27 28 29 30 31 32 33 34 35 36 37 38 39 40 41 42 43 44 45 46 47 48 49 50
364
ASUS43 KGRB 221211
RWRGRB

NORTH-CENTRAL AND NORTHEAST WISCONSIN REGIONAL WEATHER ROUNDUP
NATIONAL WEATHER SERVICE GREEN BAY WI
700 AM CDT SUN APR 22 2018

WIZ005-009-010>012-018-019-221300-
NORTH CENTRAL WISCONSIN

CITY           SKY/WX    TMP DP  RH WIND       PRES   REMARKS
IRONWOOD       FAIR      27  23  85 CALM      30.38R
MANITOWISH WTR FAIR      22  21  96 CALM      30.37R
ARBOR VITAE    FAIR      27  21  79 CALM      30.37R
EAGLE RIVER    FAIR      23  19  83 CALM      30.37R
LAND O LAKES   FAIR      23  19  85 CALM      30.39R
RHINELANDER    FAIR      29  23  78 CALM      30.38R
PHILLIPS       FAIR      25  22  91 CALM      30.36S
ANTIGO         FAIR      29  28  93 CALM      30.39R
TOMAHAWK       FAIR      23  21  91 CALM      30.38R
MERRILL          N/A     26  24  92 CALM      30.39R
$$

WIZ013-073-221300-
NORTHEAST WISCONSIN

CITY           SKY/WX    TMP DP  RH WIND       PRES   REMARKS
IRON MOUNTAIN  FAIR      30  22  72 CALM      30.37R
MARINETTE      FAIR      32  26  78 CALM      30.41R
OCONTO         FAIR      28  26  91 CALM      30.40R
$$

WIZ017-030-035>037-045-221300-
CENTRAL WISCONSIN

CITY           SKY/WX    TMP DP  RH WIND       PRES   REMARKS
MEDFORD        FAIR      28  25  89 NE5       30.36R
WAUSAU         FAIR      28  26  92 CALM      30.37R
MOSINEE        PTCLDY    32  27  80 NE5       30.38R
MARSHFIELD     FAIR      33  27  78 CALM      30.36R
WISC RAPIDS    FAIR      29  23  78 CALM      30.38R
STEVENS POINT  FAIR      26  24  92 CALM      30.39R
WAUPACA        FAIR      31  29  91 W5        30.39R
SHAWANO        FAIR      31  27  86 CALM      30.39R
CLINTONVILLE   FAIR      27  24  86 CALM      30.39R
WAUTOMA        FAIR      31  27  85 N3        30.39R
$$

WIZ038-039-048-051-221300-
FOX VALLEY

CITY           SKY/WX    TMP DP  RH WIND       PRES   REMARKS
NWS GREEN BAY  FAIR      31  29  92 CALM      30.40R
APPLETON       PTCLDY    37  27  65 CALM      30.37R
OSHKOSH        FAIR      33  31  92 CALM      30.38R FOG
FOND DU LAC    FAIR      32  27  81 CALM      30.38R
$$

WIZ022-050-052-221300-
EAST CENTRAL WISCONSIN

CITY           SKY/WX    TMP DP  RH WIND       PRES   REMARKS
EPHRAIM        FAIR      42  21  42 SW3       30.39R
WASHINGTON ISL FAIR      33  26  75 CALM      30.40R
STURGEON BAY   FAIR      38  20  48 S3        30.41R
MANITOWOC      FAIR      32  27  81 CALM      30.40R
SHEBOYGAN      FAIR      31  30  96 N3        30.38R
$$

LMZ563-521-522-541>543-221300-
LAKESHORE

STATION/POSITION TIME  TEMP    WIND        PRES    VSBY  WAVE
                       AIR SEA DIR/SP/G                  HT/PER
                 (UTC) (F)     (DEG/KT/KT) (MB)    (MI)  (FT/S)
SHEBOYGAN LKSHOR 1200   38      30/  5/  5 1029.6R
KEWAUNEE LKSHORE 1142   30     300/  3/  4 1028.5R
NORTHPORT PIER   1140   36                 1029.1R
SISTER BAY LKSHO 1127   40        CALM       N/A
MENOMINEE LKSHOR 1136   33     230/  2/  3 1028.8R
$$




USA.gov is the U.S. government's official web portal to all federal, state and local government web resources and services.